Farmingdale, NY

5:57 AM EDT on June 24, 2018 (GMT -0400)
Republic

Weather History for KFRG - September, 2017

Change the Weather History Date:

Wednesday, September 13, 2017

  Actual Average Record
Temperature  
Mean Temperature 70 °F -  
Max Temperature 80 °F 74 °F 89 °F (2005)
Min Temperature 59 °F 59 °F 50 °F (2006)
Cooling Degree Days 4    
Growing Degree Days 20 (Base 50)    
Moisture  
Dew Point 62 °F    
Average Humidity 78    
Maximum Humidity 93    
Minimum Humidity 40    
Precipitation  
Precipitation 0.00 in - - ()
Sea Level Pressure  
Sea Level Pressure 29.90 in    
Wind  
Wind Speed 4 mph (SW)    
Max Wind Speed 15 mph    
Max Gust Speed -    
Visibility 10 miles    
Events      
Averages and records for this station are not official NWS values.
T = Trace of Precipitation, MM = Missing Value Source: NWS Daily Summary

Daily Weather History Graph

Daily Weather History Graph

Search for Another Location

Airport or City:

Astronomy

Sep. 13, 2017 Rise Set
Actual Time 6:32 AM EDT 7:05 PM EDT
Civil Twilight 6:05 AM EDT 7:33 PM EDT
Nautical Twilight 5:32 AM EDT 8:05 PM EDT
Astronomical Twilight 4:59 AM EDT 8:38 PM EDT
Moon No Moon Rise 2:20 PM EDT (9/13)
Length of Visible Light 13h 28m
Length of Day
12h 33m
Last Quarter, 46% of the Moon is Illuminated
Sep 13
Last Quarter
Sep 20
New
Sep 27
First Quarter
Oct 5
Full
Oct 12
Last Quarter

Hourly Weather History & Observations

Time (EDT) Temp. Heat Index Dew Point Humidity Pressure Visibility Wind Dir Wind Speed Gust Speed Precip Events Conditions
12:53 AM 63.0 °F - 60.1 °F 90% 29.92 in 10.0 mi Calm Calm - N/A   Clear
1:53 AM 61.0 °F - 59.0 °F 93% 29.91 in 10.0 mi Calm Calm - N/A   Clear
2:53 AM 62.1 °F - 59.0 °F 90% 29.92 in 10.0 mi Calm Calm - N/A   Clear
3:53 AM 61.0 °F - 57.9 °F 90% 29.91 in 10.0 mi Calm Calm - N/A   Clear
4:53 AM 59.0 °F - 57.0 °F 93% 29.91 in 10.0 mi Calm Calm - N/A   Clear
5:53 AM 59.0 °F - 55.9 °F 90% 29.92 in 10.0 mi Calm Calm - N/A   Clear
6:53 AM 60.1 °F - 57.0 °F 90% 29.93 in 10.0 mi Calm Calm - N/A   Clear
7:53 AM 64.0 °F - 60.1 °F 87% 29.93 in 10.0 mi Calm Calm - N/A   Clear
8:53 AM 70.0 °F - 61.0 °F 73% 29.93 in 10.0 mi SW 4.6 mph - N/A   Clear
9:53 AM 73.0 °F - 59.0 °F 61% 29.93 in 10.0 mi Variable 3.5 mph - N/A   Clear
10:53 AM 77.0 °F - 57.0 °F 50% 29.91 in 10.0 mi Variable 4.6 mph - N/A   Clear
11:53 AM 79.0 °F - 53.1 °F 40% 29.91 in 10.0 mi Variable 4.6 mph - N/A   Clear
12:53 PM 79.0 °F - 59.0 °F 50% 29.90 in 10.0 mi SSW 8.1 mph - N/A   Clear
1:53 PM 80.1 °F 80.2 °F 55.9 °F 43% 29.88 in 10.0 mi SSW 10.4 mph - N/A   Clear
2:53 PM 75.9 °F - 60.1 °F 58% 29.88 in 10.0 mi SSW 13.8 mph - N/A   Clear
3:53 PM 75.9 °F - 61.0 °F 60% 29.87 in 10.0 mi SW 10.4 mph - N/A   Overcast
4:53 PM 73.9 °F - 60.1 °F 62% 29.87 in 10.0 mi SW 15.0 mph - N/A   Mostly Cloudy
5:53 PM 72.0 °F - 66.0 °F 81% 29.87 in 10.0 mi SSW 10.4 mph - N/A   Mostly Cloudy
6:28 PM 71.1 °F - 66.9 °F 87% 29.87 in 10.0 mi SW 11.5 mph - N/A   Mostly Cloudy
6:35 PM 71.1 °F - 66.9 °F 87% 29.88 in 10.0 mi SW 9.2 mph - N/A   Mostly Cloudy
6:53 PM 72.0 °F - 66.9 °F 84% 29.88 in 10.0 mi WSW 9.2 mph - N/A   Overcast
7:01 PM 72.0 °F - 66.9 °F 84% 29.88 in 10.0 mi West 9.2 mph - N/A   Overcast
7:41 PM 72.0 °F - 66.9 °F 84% 29.88 in 10.0 mi WSW 4.6 mph - N/A   Overcast
7:53 PM 72.0 °F - 66.9 °F 84% 29.88 in 10.0 mi WSW 4.6 mph - N/A   Overcast
8:53 PM 72.0 °F - 68.0 °F 87% 29.88 in 10.0 mi WSW 6.9 mph - N/A   Overcast
9:04 PM 72.0 °F - 66.9 °F 84% 29.88 in 10.0 mi SW 6.9 mph - N/A   Overcast
9:53 PM 72.0 °F - 66.9 °F 84% 29.88 in 10.0 mi SSW 5.8 mph - N/A   Overcast
10:53 PM 71.1 °F - 66.9 °F 87% 29.89 in 10.0 mi WSW 6.9 mph - N/A   Overcast
11:23 PM 71.1 °F - 68.0 °F 90% 29.89 in 10.0 mi SW 5.8 mph - N/A   Overcast
11:32 PM 71.1 °F - 68.0 °F 90% 29.89 in 10.0 mi SW 6.9 mph - N/A   Overcast
11:53 PM 71.1 °F - 68.0 °F 90% 29.88 in 10.0 mi SW 8.1 mph - N/A   Overcast